User: anonymous   Login
Location: Unspecified
(0.0000°N, 0.0000°E)
Time: 05:03:34
(UTC+00:00)
Language:

Vela 2A - Orbit

View from above orbital plane
View from above orbital plane
View from above satellite
View from above satellite

Ground track
Ground track

The orbit data is extracted from the following two-line orbital elements,

1 00836U 64040A   15107.21268997  .00000273  00000-0  00000+0 0  9990
2 00836 081.6494 323.1154 3314573 251.6761 359.8717 00.23935903 44332
Epoch (UTC): 17 April 2015 05:06:16
Eccentricity: 0.3314573
inclination: 81.6494°
perigee height: 66875 km
apogee height: 139511 km
right ascension of ascending node: 323.1154°
argument of perigee: 251.6761°
revolutions per day: 0.23935903
mean anomaly at epoch: 359.8717°
orbit number at epoch: 4433

The dashed part of the orbit path shows where the satellite is in the earth's shadow,  

DLR